Regional Weather Roundup
Issued by NWS

Home | Current Version | Previous Version | Text Only | Print | Product List | Glossary Off
Versions: 1 2 3 4 5 6 7 8 9 10 11 12 13 14 15 16 17 18 19 20 21 22 23 24 25 26 27 28 29 30 31 32 33 34 35 36 37 38 39 40 41 42 43 44 45 46 47 48 49 50

000
ASUS45 KCYS 221510
RWRWY

WYOMING REGIONAL WEATHER ROUNDUP
NATIONAL WEATHER SERVICE CHEYENNE WY
800 AM MST SAT NOV 22 2014

NOTE:  "FAIR" INDICATES FEW OR NO CLOUDS BELOW 12,000 FEET
WITH NO SIGNIFICANT WEATHER AND/OR OBSTRUCTIONS TO VISIBILITY.

WYZ001-221600-
YELLOWSTONE NATIONAL PARK

CITY           SKY/WX    TMP DP  RH WIND       PRES   REMARKS
LK YELLOWSTONE   N/A     28  25  88 VRB3      29.67F
W YELLOWSTONE  NOT AVBL

$$
WYZ002>013-054>058-071-098>099-221600-
NORTHERN WYOMING

CITY           SKY/WX    TMP DP  RH WIND       PRES   REMARKS
JACKSON        NOT AVBL
CODY           CLOUDY    39  30  70 SW24G43   29.49F WCI  28
GREYBULL       CLOUDY    18  16  92 SW5       29.60S WCI  11
WORLAND        CLOUDY    20  16  84 N3        29.59S
SHERIDAN       MOCLDY    31  22  69 VRB5      29.44F WCI  26
BUFFALO        PTCLDY    43  16  33 S9        29.48F
GILLETTE       PTCLDY    40  24  53 SW17      29.46F WCI  31
HULETT           N/A    N/A N/A N/A MISG        N/A
NEWCASTLE      FAIR      37  23  56 E5        29.56F WCI  34

$$
WYZ014>020-022>026-101>103-221600-
CENTRAL WYOMING

CITY           SKY/WX    TMP DP  RH WIND       PRES   REMARKS
BIG PINEY      CLOUDY    24  19  81 NE7       29.78F WCI  16
PINEDALE       CLOUDY    28  23  80 E7        29.80F WCI  21
DUBOIS         LGT SNOW  30  27  86 NW12G22   29.67R WCI  21
LANDER         NOT AVBL
RIVERTON       MOCLDY    28  18  66 N5        29.64F WCI  23
CASPER         MOCLDY    39  21  48 SW25G33   29.66R WCI  28
DOUGLAS        NOT AVBL

$$
WYZ021-027>030-104>119-221600-
SOUTHERN WYOMING

CITY           SKY/WX    TMP DP  RH WIND       PRES   REMARKS
EVANSTON       PTCLDY    33  22  63 SW17      29.83F WCI  22
KEMMERER       PTSUNNY   34  23  64 SW21G30   29.79F WCI  22
FORT BRIDGER   FAIR      36  23  58 W10       29.83F WCI  28
ROCK SPRINGS   MOCLDY    32  18  56 S8        29.84F WCI  25
DIXON          CLOUDY    39  17  41 S21G29    29.95F WCI  29
RAWLINS        CLOUDY    35  16  45 S36G48    29.81F WCI  21
SARATOGA       CLOUDY    37  21  52 SW20      29.88F WCI  27
LARAMIE        MOCLDY    36  17  46 SW29G37   29.78R WCI  23
CHEYENNE       CLOUDY    41  14  33 S6        29.76R
TORRINGTON     CLOUDY    42  22  44 S13       29.66F
PINE BLUFFS    FAIR      32  19  59 SW8       29.74F WCI  25

$$


USA.gov is the U.S. government's official web portal to all federal, state and local government web resources and services.